[[{"header":{"parameterUnit":"m.s-1","parameterCategory":1,"la1":30.2992,"la2":30.254,"lo1":-89.0895,"lo2":-89.0443,"dy":0.0025,"dx":0.0025,"nx":19,"ny":19,"refTime":"2026-03-28T09:00:00:Z","depth":0,"parameterNumber":2,"parameterNumberName":"U-component_of_WINDS"},"data":[0,0,0,-5.0921,-5.0924,-5.107,-5.107,-5.1295,-5.1297,0,0,0,0,0,0,0,0,0,0,0,-5.09,-5.0902,-5.092,-5.0925,-5.107,-5.107,-5.1295,-5.1297,0,0,0,0,0,0,0,0,0,0,0,-5.0899,-5.0902,-5.0904,-5.0925,-5.107,-5.107,-5.1294,-5.1171,0,0,0,0,0,0,0,0,0,0,-5.1023,-5.1026,-5.0901,-5.0905,-5.0926,-5.1069,-5.107,-5.1164,-5.1178,-5.1246,0,-5.131,0,-5.1308,-5.1315,-5.1316,0,0,0,-5.0908,-5.1014,-5.1033,-5.0905,-5.0928,-5.1069,-5.0999,-5.1172,-5.1188,-5.1265,-5.1313,-5.132,-5.1311,-5.1316,-5.1318,-5.1758,-5.176,0,0,-5.09,-5.0938,-5.1022,-5.1044,-5.1023,-5.0995,-5.1004,-5.1181,-5.1236,-5.1314,-5.1325,-5.1315,-5.1318,-5.132,-5.1755,-5.1758,0,0,0,-5.0888,-5.0934,-5.0947,-5.1036,-5.1059,-5.1,-5.101,-5.1228,-5.123,-5.1327,-5.1318,-5.132,-5.1323,-5.1752,-5.1756,-5.1932,0,0,0,-5.0882,-5.0926,-5.0944,-5.097,-5.1057,-5.1146,-5.1055,-5.1217,-5.1236,-5.1317,-5.132,-5.1325,-5.1749,-5.1754,-5.1921,-5.2009,0,0,0,-5.0883,-5.0926,-5.0955,-5.0971,-5.1035,-5.1142,-5.1152,-5.122,-5.1232,-5.1316,-5.1326,-5.1746,-5.1753,-5.191,-5.1992,-5.2135,0,0,0,-5.0894,-5.111,-5.0958,-5.1195,-5.1034,-5.125,-5.1151,-5.131,-5.1403,-5.1321,-5.1749,-5.1756,-5.1907,-5.1981,-5.2125,-5.2262,-5.2323,0,0,-5.1187,-5.1147,-5.1283,-5.1152,-5.1404,-5.1224,-5.1503,-5.1553,-5.1526,-5.1682,-5.1693,-5.1924,-5.199,-5.2133,-5.2655,-5.2704,0,0,0,-5.1389,-5.1487,-5.1546,-5.1636,-5.1679,-5.1724,-5.1727,-5.1745,-5.1876,-5.1614,-5.2014,-5.2053,-5.2135,-5.2199,-5.224,-5.2308,-5.1787,-5.1786,-5.1786,-5.1858,-5.1812,-5.2035,-5.2008,-5.2097,-5.2098,-5.2167,-5.2192,-5.212,-5.2216,-5.2262,-5.2584,-5.2661,-5.2691,-5.2763,-5.2332,-5.2333,-5.2333,-5.2334,-5.2282,-5.2414,-5.2314,-5.2494,-5.2445,-5.2597,-5.2608,-5.2552,-5.2686,-5.2546,-5.2616,-5.2465,-5.2747,-5.2806,-5.2346,-5.2344,-5.2343,-5.2341,-5.234,-5.2583,-5.2638,-5.2657,-5.2784,-5.2887,-5.2852,-5.2986,-5.2937,-5.2893,-5.2962,-5.3005,-5.3002,-5.2992,-5.2986,-5.2987,-5.2988,-5.2989,-5.299,-5.2991,-5.2887,-5.2903,-5.3021,-5.3086,-5.3138,-5.32,-5.3206,-5.3256,-5.33,-5.3253,-5.3254,-5.3173,-5.2783,-5.2685,-5.3008,-5.3005,-5.3003,-5.3001,-5.3,-5.3332,-5.3223,-5.3406,-5.3458,-5.3531,-5.3637,-5.3574,-5.3681,-5.3716,-5.3784,-5.3689,-5.3409,-5.3363,-5.333,-5.3249,-5.3698,-5.3698,-5.3698,-5.3698,-5.3585,-5.3557,-5.3732,-5.3819,-5.3899,-5.3861,-5.407,-5.4078,-5.4069,-5.4088,-5.4016,-5.3905,-5.3873,-5.3846,-5.3802,-5.3725,-5.4286,-5.4286,-5.4287,-5.3855,-5.3833,-5.4019,-5.4008,-5.4062,-5.411,-5.4305,-5.441,-5.4377,-5.4309,-5.4102,-5.4077,-5.3897,-5.384,-5.3766,-5.3697,-5.3556,0,0]},{"header":{"parameterUnit":"m.s-1","parameterCategory":1,"la1":30.2992,"la2":30.254,"lo1":-89.0895,"lo2":-89.0443,"dy":0.0025,"dx":0.0025,"nx":19,"ny":19,"refTime":"2026-03-28T09:00:00:Z","depth":0,"parameterNumber":3,"parameterNumberName":"V-component_of_WINDS"},"data":[0,0,0,0.4839,0.4842,0.4989,0.499,0.52,0.5202,0,0,0,0,0,0,0,0,0,0,0,0.4805,0.4807,0.4839,0.4843,0.4989,0.499,0.5199,0.5202,0,0,0,0,0,0,0,0,0,0,0,0.4804,0.4806,0.4808,0.4843,0.4989,0.499,0.5199,0.5081,0,0,0,0,0,0,0,0,0,0,0.4935,0.4912,0.4806,0.4808,0.4844,0.4989,0.499,0.5075,0.5088,0.5141,0,0.5187,0,0.5198,0.5217,0.5217,0,0,0,0.4836,0.4901,0.4931,0.4809,0.4846,0.4989,0.4921,0.5082,0.5097,0.5159,0.519,0.5198,0.5201,0.5218,0.5219,0.554,0.5541,0,0,0.4828,0.4837,0.4921,0.4942,0.4916,0.4917,0.4926,0.5091,0.5127,0.5191,0.5202,0.5205,0.522,0.5221,0.5538,0.554,0,0,0,0.4809,0.4832,0.4858,0.4933,0.4958,0.4921,0.4932,0.512,0.5127,0.5204,0.5207,0.5221,0.5224,0.5536,0.5539,0.5637,0,0,0,0.4804,0.482,0.4855,0.4862,0.4955,0.504,0.4957,0.5116,0.5134,0.5206,0.5221,0.5226,0.5534,0.5537,0.563,0.5683,0,0,0,0.4792,0.4819,0.4843,0.4862,0.4925,0.5037,0.5054,0.512,0.5137,0.5218,0.5226,0.5532,0.5537,0.5624,0.5673,0.5773,0,0,0,0.4783,0.4928,0.4845,0.5008,0.4924,0.5095,0.5053,0.518,0.5261,0.5222,0.5534,0.5538,0.5622,0.5666,0.5766,0.586,0.5899,0,0,0.4971,0.4951,0.5046,0.4976,0.5165,0.5072,0.5276,0.5343,0.5343,0.5475,0.5483,0.5632,0.5672,0.5771,0.611,0.6141,0,0,0,0.5109,0.5179,0.5226,0.5303,0.5356,0.5408,0.5442,0.5468,0.5579,0.5411,0.5693,0.5717,0.5775,0.582,0.5846,0.5898,0.5558,0.5558,0.5557,0.539,0.5382,0.5541,0.5552,0.5627,0.5662,0.5724,0.5765,0.5734,0.5801,0.5841,0.6047,0.61,0.612,0.6173,0.5888,0.5888,0.5888,0.5889,0.5668,0.5766,0.5723,0.5862,0.5855,0.5973,0.6014,0.5989,0.61,0.6016,0.6067,0.5978,0.6154,0.6201,0.5896,0.5895,0.5894,0.5893,0.5893,0.5853,0.5899,0.5926,0.6039,0.6128,0.6134,0.6244,0.6232,0.6222,0.6272,0.6316,0.6315,0.6315,0.6293,0.6294,0.6295,0.6295,0.6296,0.6296,0.6036,0.6064,0.6156,0.6227,0.6276,0.6341,0.6379,0.6429,0.6481,0.6465,0.6465,0.6432,0.6171,0.6108,0.6307,0.6305,0.6304,0.6303,0.6302,0.6327,0.6259,0.6402,0.6452,0.6536,0.6628,0.6611,0.6714,0.6754,0.681,0.6765,0.6573,0.6552,0.6531,0.648,0.6763,0.6763,0.6763,0.6763,0.6486,0.6473,0.6619,0.67,0.6779,0.6779,0.6946,0.6979,0.7002,0.7028,0.6984,0.6913,0.6892,0.6885,0.6856,0.6807,0.7168,0.7169,0.7169,0.6666,0.6661,0.6804,0.6824,0.6889,0.6948,0.7106,0.7205,0.7217,0.7185,0.7048,0.7031,0.6916,0.6878,0.6846,0.6801,0.6712,0,0]}]]